ATLAS 5 CENTAUR DEB, 44685

Orbit data source: Space-Track

ATLAS 5 CENTAUR DEB, 44685 is space debris in HEO originally from a launch on Wed, 17 Oct 2018 UTC launched from the Air Force Eastern Test Range (AFETR). Debris objects in space refer to the collection of defunct objects orbiting the Earth. Examples of debris include non-operational satellites, rocket bodies, and fragments generated from explosions, collisions, or faulty payload assembly.

Loading next visibility...
Identifier
44685, 2018-079AX
Orbit
HEO
Country
Flag of USUS
Related business
Flag of USUnited Launch Alliance/Lockheed Martin (US)
Manufacturer
ULA Decatur
Mission
Spacecraft
Bus & Motor
Unknown
Mass
Unknown
Launch date (UTC)
2018-10-17 (7 years ago)
Launch vehicle
Unknown
Launch site
Air Force Eastern Test Range (AFETR)
Object type
Payload
Rocket body
Debris
Shape & HBR
Unknown shape, 1.1 m
Radar Cross Section
RCS unknown

Expand to show TLE details & history
Last TLE update: 1 day ago

TLE from 1 day ago
0 ATLAS 5 CENTAUR DEB
1 44685U 18079AX  25340.68069375 -.00000103  00000-0  00000-0 0  9995
2 44685  12.2512  88.2716 4599045 208.1525 116.5202  1.69266758 40240
Epoch: 2025-12-06T16:20Z
TLE epoch observation values (Epoch: 2025-12-06T16:20:11.939Z)
Latitude
0.00002°
Longitude
127.42794°
Altitude
33,087.581 km
Speed
2.607 km/s
True Right ascension
05h 52m 43s
True Declination
0° 00' 00"
Sunlit
Object was in daylight at epoch
Visualization orbit readout
Latitude
Unknown
Longitude
Unknown
Altitude
Unknown
Speed
Unknown
Apparent Right ascension
Unknown
Apparent Declination
Unknown
Sunlit
N/A
Visualization observer readout
Local Sidereal Time
21:28:22
Azimuth
Unknown
Elevation
Unknown
Doppler factor
Unknown
Orbital elements
Apogee altitude
37,043.638 km
Perigee altitude
9,685.862 km
Semi-major axis
29,742.887 km
Eccentricity
0.4599
Inclination
12.2512°
RAAN
88.2716°
Arg. of periapsis
208.1525°
True anomaly
151.79562°
Mean anomaly
116.5202°
Eccentric anomaly
135.11533°
Mean motion
0.42312 °/min
Orbital period
850.81 mins
BSTAR
0
Loading maneuver chart data...
Computing Atmospheric mass density...

Documentation

Showing up to 5 results
|